Regional Weather Roundup
Issued by NWS Huntsville, AL

Home | Current Version | Previous Version | Text Only | Print | Product List | Glossary On
Versions: 1 2 3 4 5 6 7 8 9 10 11 12 13 14 15 16 17 18 19 20 21 22 23 24 25 26 27
000
ASUS44 KHUN 262310
RWRHUN

WEATHER ROUNDUP FOR THE TENNESSEE VALLEY
NATIONAL WEATHER SERVICE HUNTSVILLE AL
600 PM CDT SAT MAY 26 2018

ALZ001>004-270000-
NORTHWEST ALABAMA

CITY           SKY/WX    TMP DP  RH WIND       PRES   REMARKS
COURTLAND HCN    N/A     77 N/A N/A S3          N/A
RUSSELLVILLE     N/A     79 N/A N/A MISG        N/A
SHOALS AIRPORT FAIR      81  69  67 S7        29.85F
SHOALS TVA RES   N/A     81 N/A N/A MISG        N/A
$$

ALZ005>007-016-270000-
NORTH CENTRAL ALABAMA

CITY           SKY/WX    TMP DP  RH WIND       PRES   REMARKS
CULLMAN AG STN   N/A     82 N/A N/A CALM        N/A
DECATUR AP     FAIR      82  69  64 W5        29.85F
HUNTSVILLE AP  FAIR      85  69  58 W5        29.84F
MERIDIANVILLE  SUNNY     82  68  61 SW3       29.85F
REDSTONE ARSN  FAIR      83  68  61 W3        29.84F
VINEMONT AP    FAIR      82  67  59 S5        29.89F
$$

ALZ008>010-270000-
NORTHEAST ALABAMA

CITY           SKY/WX    TMP DP  RH WIND       PRES   REMARKS
FORT PAYNE     FAIR      79  68  69 NE6       29.86F
SCOTTSBORO AP  FAIR      81  72  74 CALM      29.86F
SCOTTSBORO HCN   N/A     77 N/A N/A MISG        N/A
VALLEY HEAD      N/A     73 N/A N/A MISG        N/A
$$

TNZ076-096-097-270000-
SOUTHEASTERN MIDDLE TENNESSEE

CITY           SKY/WX    TMP DP  RH WIND       PRES   REMARKS
TULLAHOMA      PTSUNNY   79  70  73 NW6       29.87S
WINCHESTER     MOSUNNY   75  68  78 CALM      29.87F HAZE
$$

...SURROUNDING SITES...

CITY           SKY/WX    TMP DP  RH WIND       PRES   REMARKS
ATLANTA        PTSUNNY   82  66  58 S7        29.90S
ANNISTON       FAIR      82  70  66 SW3       29.86F
BIRMINGHAM     PTSUNNY   82  68  62 SE6       29.88S
CHATTANOOGA    PTSUNNY   83  67  58 VRB3      29.86F
CORINTH          N/A     82  68  61 S7        29.83S
DALTON         PTSUNNY   84  70  61 S3        29.88S
GADSDEN        FAIR      83  69  62 VRB6      29.86F
GOLDEN TRNGL   FAIR      82  71  69 S5        29.83F
HALEYVILLE       N/A    N/A N/A N/A MISG        N/A
JACKSON TN     FAIR      85  69  58 S5        29.82S
MEMPHIS        PTSUNNY   78  71  79 W6        29.82R
NASHVILLE      FAIR      79  69  71 S3        29.85F
ROME           FAIR      86  69  56 S3        29.85F HX  90
SAVANNAH       SUNNY     84  70  61 S7        29.83S
SELMER         SUNNY     84  70  61 S5        29.83S
TUPELO         FAIR      82  70  66 CALM      29.83R
TUSCALOOSA     FAIR      85  70  60 S10       29.83S
$$

...GULF COAST WEATHER...

CITY           SKY/WX    TMP DP  RH WIND       PRES   REMARKS
GULFPORT       FAIR      84  70  62 S12       29.82S
PASCAGOULA     FAIR      81  70  69 MISG      29.84S
MOBILE         FAIR      80  71  74 SE9       29.86R
GULF SHORES    CLOUDY    78  73  82 E12G21    29.85R
PENSACOLA      FAIR      81  69  67 E14       29.83
DESTIN         FAIR      77  72  84 SE10      29.86F
PANAMA CITY    FAIR      79  68  68 SE12      29.88S
APPALACHICOLA  FAIR      79  69  71 S5        29.87F
$$





USA.gov is the U.S. government's official web portal to all federal, state and local government web resources and services.